Location: Musselshell
(46.5176°N, 108.0911°W)
Time: 00:46:15
(UTC+00:00)

N. Korean satellite - Visible Passes

Search period start: 27 January 2022 00:00
Search period end: 06 February 2022 00:00
Orbit: 447 x 490 km, 97.3° (Epoch: 26 January)

Date Brightness Start Highest point End Pass type
(mag) Time Alt. Az. Time Alt. Az. Time Alt. Az.
27 Jan 9.4 11:35:30 10° NE 11:38:02 18° E 11:39:00 16° ESE visible
27 Jan 7.1 13:07:57 10° N 13:11:17 35° WNW 13:13:04 21° WSW visible
28 Jan 6.4 12:38:29 10° N 12:42:09 80° WNW 12:44:00 27° SSW visible
29 Jan 10.1 00:50:18 10° WSW 00:51:29 11° W 00:52:41 10° WNW visible
29 Jan 7.7 12:09:22 10° NNE 12:12:52 43° E 12:14:58 21° SSE visible
29 Jan 8.2 13:43:29 10° NNW 13:45:40 15° WNW 13:47:50 10° W visible
30 Jan 9.2 11:40:41 10° NE 11:43:27 20° E 11:45:59 11° SE visible
30 Jan 7.3 13:13:24 10° N 13:16:38 30° WNW 13:19:50 10° SW visible
31 Jan 6.4 12:43:51 10° N 12:47:28 68° WNW 12:51:03 10° SSW visible
01 Feb 7.4 12:14:36 10° NNE 12:18:10 51° E 12:21:41 10° S visible
01 Feb 8.4 13:49:02 10° NNW 13:50:53 14° WNW 13:52:44 10° W visible
02 Feb 9.0 11:45:47 10° NE 11:48:44 23° E 11:51:39 10° SSE visible
02 Feb 7.5 13:18:45 10° N 13:21:50 26° WNW 13:24:53 10° SW visible
03 Feb 10.0 11:18:12 10° ENE 11:19:09 11° E 11:20:06 10° ESE visible
03 Feb 6.5 12:49:04 10° N 12:52:39 58° WNW 12:56:11 10° SSW visible
04 Feb 7.1 12:19:43 10° NNE 12:23:20 59° E 12:26:52 10° S visible
04 Feb 8.5 13:54:33 10° NW 13:55:58 12° WNW 13:57:22 10° W visible
05 Feb 8.7 11:50:46 10° NE 11:53:52 26° E 11:56:54 10° SSE visible
05 Feb 7.7 13:23:58 10° NNW 13:26:53 23° WNW 13:29:47 10° WSW visible
